Location: Newark
(37.9717°N, 99.9089°W)
Time: 09:11:06
(UTC+00:00)

X-37B - Pass Details

Date: 01 October 2021
Orbit: 385 x 389 km, 45.0° (Epoch: 17 October)

Event Time Altitude Azimuth Distance (km) Brightness Sun altitude
Exits shadow 11:57:33 - 301° (WNW) 1,556 3.1 -8.3°
Reaches altitude 10° 11:57:54 10° 301° (WNW) 1,412 2.9 -8.3°
Maximum altitude 12:01:04 67° 25° (NNE) 422 0.9 -7.6°
Drops below altitude 10° 12:04:13 10° 109° (ESE) 1,409 4.8 -7.0°
Sets 12:06:18 0° 112° (ESE) 2,262 5.9 -6.6°
